Location: Appeville
(49.3218°N, 1.3427°W)
Time: 12:28:31
(UTC+00:00)

Cosmos 371 Rocket - Pass Details

Date: 08 December 2019
Orbit: 684 x 699 km, 74.0° (Epoch: 26 January)

Event Time Altitude Azimuth Distance (km) Brightness Sun altitude
Rises 06:26:47 0° 186° (S) 3,045 6.8 -12.4°
Reaches altitude 10° 06:29:07 10° 181° (S) 2,136 6.1 -12.0°
Maximum altitude 06:33:46 50° 107° (ESE) 880 4.3 -11.3°
Drops below altitude 10° 06:38:28 10° 32° (NNE) 2,162 6.0 -10.6°
Sets 06:40:51 0° 28° (NNE) 3,086 6.7 -10.3°
